CW8386 Weather Reports


Display with metric or nautical units.
time (UTC)temp
F
wind
direction
speed
MPH
gust
MPH
rain 1hr
in
rain 24hr
in
rain mn
in
humidity
%
barometer
mb
20260502224119 75 360 0.0 10.0 0.00 0.00 0.00 19 1014.3
20260502223059 75 360 3.0 10.0 0.00 0.00 0.00 19 1014.6
20260502222601 75 360 0.0 3.0 0.00 0.00 0.00 18 1014.7
20260502222039 75 360 0.0 3.0 0.00 0.00 0.00 18 1014.7
20260502221541 74 360 0.0 4.0 0.00 0.00 0.00 18 1015.0
20260502221044 74 360 0.0 4.0 0.00 0.00 0.00 18 1015.2
20260502220545 74 360 0.0 0.0 0.00 0.00 0.00 19 1015.3
20260502220048 74 360 0.0 0.0 0.00 0.00 0.00 18 1015.3
20260502215528 73 360 0.0 0.0 0.00 0.00 0.00 18 1015.4
20260502215032 73 360 0.0 0.0 0.00 0.00 0.00 18 1015.5
20260502214535 73 360 0.0 4.0 0.00 0.00 0.00 18 1015.7
20260502214058 73 360 1.0 7.0 0.00 0.00 0.00 19 1015.8
20260502213619 73 360 0.0 7.0 0.00 0.00 0.00 18 1015.9
20260502213040 73 360 1.0 12.0 0.00 0.00 0.00 18 1016.0
20260502212525 73 360 0.0 12.0 0.00 0.00 0.00 18 1016.1
20260502212048 73 360 4.0 10.0 0.00 0.00 0.00 19 1016.2
20260502211550 73 360 2.0 11.0 0.00 0.00 0.00 18 1016.4
20260502210608 73 360 0.0 15.0 0.00 0.00 0.00 20 1016.5
20260502210049 73 360 1.0 13.0 0.00 0.00 0.00 19 1016.5
20260502205530 73 360 2.0 9.0 0.00 0.00 0.00 19 1015.8
20260502205033 73 360 1.0 11.0 0.00 0.00 0.00 19 1015.9
20260502204538 73 360 4.0 12.0 0.00 0.00 0.00 19 1016.0
20260502204101 73 360 2.0 12.0 0.00 0.00 0.00 19 1016.1
20260502203602 73 360 0.0 11.0 0.00 0.00 0.00 20 1016.1
20260502203044 72 360 2.0 13.0 0.00 0.00 0.00 18 1016.2
20260502202526 73 360 6.0 13.0 0.00 0.00 0.00 18 1016.2
20260502202051 72 360 0.0 12.0 0.00 0.00 0.00 18 1016.3
20260502201532 73 360 0.0 11.0 0.00 0.00 0.00 18 1016.4
20260502201056 73 360 1.0 11.0 0.00 0.00 0.00 18 1016.5
20260502200556 72 360 0.0 6.0 0.00 0.00 0.00 18 1016.5
20260502200058 73 360 0.0 3.0 0.00 0.00 0.00 21 1016.6
20260502195540 72 360 0.0 3.0 0.00 0.00 0.00 18 1016.7
20260502195044 72 360 0.0 5.0 0.00 0.00 0.00 18 1016.8
20260502194545 72 360 1.0 5.0 0.00 0.00 0.00 18 1016.9
20260502194047 71 360 0.0 0.0 0.00 0.00 0.00 19 1017.0
20260502193528 71 360 0.0 0.0 0.00 0.00 0.00 19 1017.1
20260502193111 71 360 0.0 12.0 0.00 0.00 0.00 19 1017.2
20260502192612 71 360 0.0 12.0 0.00 0.00 0.00 19 1017.3
20260502192052 71 360 3.0 9.0 0.00 0.00 0.00 19 1017.4
20260502191534 71 360 0.0 4.0 0.00 0.00 0.00 18 1017.5
20260502191037 71 360 0.0 4.0 0.00 0.00 0.00 18 1017.6
20260502190534 71 360 0.0 2.0 0.00 0.00 0.00 18 1017.7
20260502190037 71 360 0.0 2.0 0.00 0.00 0.00 18 1017.8
20260502185120 71 360 0.0 3.0 0.00 0.00 0.00 19 1018.0
20260502184541 70 360 0.0 3.0 0.00 0.00 0.00 19 1018.0
20260502184044 70 360 0.0 2.0 0.00 0.00 0.00 19 1018.0
20260502183525 70 360 0.0 0.0 0.00 0.00 0.00 20 1018.1
20260502183048 70 360 0.0 4.0 0.00 0.00 0.00 19 1018.2
20260502182530 70 360 0.0 5.0 0.00 0.00 0.00 20 1018.3
20260502182053 70 360 0.0 5.0 0.00 0.00 0.00 21 1018.3
20260502181057 70 360 0.0 1.0 0.00 0.00 0.00 20 1018.5
20260502180558 69 360 0.0 3.0 0.00 0.00 0.00 20 1018.6
20260502164034 65 360 0.0 0.0 0.00 0.00 0.00 25 1019.5
20260502163556 65 360 0.0 0.0 0.00 0.00 0.00 25 1019.5
20260502163038 65 360 0.0 0.0 0.00 0.00 0.00 26 1019.5
20260502162541 0 0.0 0.0 0.00 0.00 0.00 1019.4
20260502161602 0 0.0 0.0 0.00 0.00 0.00 1019.5
20260502161106 0 0.0 0.0 0.00 0.00 0.00 1019.6
20260502160606 0 0.0 0.0 0.00 0.00 0.00 1019.7
20260502152041 0 0.0 0.0 0.00 0.00 0.00 1019.8
20260502151603 0 0.0 0.0 0.00 0.00 0.00 1019.8
20260502151025 0 0.0 0.0 0.00 0.00 0.00 1019.9
20260502150526 0 0.0 0.0 0.00 0.00 0.00 1019.9
20260502130538 0 0.0 0.0 0.00 0.00 0.00 1019.6
20260502123526 0 0.0 0.0 0.00 0.00 0.00 1019.4
20260502123029 0 0.0 0.0 0.00 0.00 0.00 1019.4
20260502122551 0 0.0 0.0 0.00 0.00 0.00 1019.4
20260502122112 0 0.0 0.0 0.00 0.00 0.00 1019.4
20260502121613 0 0.0 0.0 0.00 0.00 0.00 1019.4
20260502121054 0 0.0 0.0 0.00 0.00 0.00 1019.3
20260502120555 0 0.0 0.0 0.00 0.00 0.00 1019.3
20260502115619 0 0.0 0.0 0.00 0.00 0.00 1019.4
20260502115101 0 0.0 0.0 0.00 0.00 0.00 1019.4
20260502114105 0 0.0 0.0 0.00 0.00 0.00 1019.4
20260502113525 0 0.0 0.0 0.00 0.00 0.00 1019.4
20260502113028 0 0.0 0.0 0.00 0.00 0.00 1019.4
20260502112551 0 0.0 0.0 0.00 0.00 0.00 1019.4
20260502112037 0 0.0 0.0 0.00 0.00 0.00 1019.4
20260502111559 0 0.0 0.0 0.00 0.00 0.00 1019.4
20260502111041 0 0.0 0.0 0.00 0.00 0.00 1019.3
20260502110623 0 0.0 0.0 0.00 0.00 0.00 1019.2
20260502110120 0 0.0 0.0 0.00 0.00 0.00 1019.3
20260502105600 0 0.0 0.0 0.00 0.00 0.00 1019.3
20260502105027 0 0.0 0.0 0.00 0.00 0.00 1019.3
20260502104548 0 0.0 0.0 0.00 0.00 0.00 1019.3
20260502104110 0 0.0 0.0 0.00 0.00 0.00 1019.4
20260502103550 0 0.0 0.0 0.00 0.00 0.00 1019.4
20260502103031 0 0.0 0.0 0.00 0.00 0.00 1019.4
20260502102534 0 0.0 0.0 0.00 0.00 0.00 1019.5
20260502102038 0 0.0 0.0 0.00 0.00 0.00 1019.5
20260502101601 0 0.0 0.0 0.00 0.00 0.00 1019.5
20260502101042 0 0.0 0.0 0.00 0.00 0.00 1019.5
20260502100604 0 0.0 0.0 0.00 0.00 0.00 1019.5
20260502100126 0 0.0 0.0 0.00 0.00 0.00 1019.5
20260502091026 0 0.0 0.0 0.00 0.00 0.00 1019.7
20260502090548 0 0.0 0.0 0.00 0.00 0.00 1019.8
20260502071050 37 360 4.0 6.0 0.00 0.00 0.00 52 1020.4
20260502070530 37 360 3.0 5.0 0.00 0.00 0.00 53 1020.3
20260502070032 37 360 0.0 6.0 0.00 0.00 0.00 54 1020.3
20260502065535 37 360 3.0 7.0 0.00 0.00 0.00 53 1020.3
20260502065038 37 360 6.0 7.0 0.00 0.00 0.00 53 1020.4
20260502064601 37 360 4.0 6.0 0.00 0.00 0.00 53 1020.4
20260502064123 37 360 3.0 4.0 0.00 0.00 0.00 53 1020.4
20260502063603 38 360 2.0 6.0 0.00 0.00 0.00 52 1020.4
20260502063104 38 360 4.0 6.0 0.00 0.00 0.00 50 1020.5
20260502062545 39 360 0.0 2.0 0.00 0.00 0.00 49 1020.5
20260502062047 39 360 0.0 4.0 0.00 0.00 0.00 49 1020.6
20260502061529 39 360 2.0 4.0 0.00 0.00 0.00 49 1020.6
20260502061037 39 360 2.0 4.0 0.00 0.00 0.00 50 1020.6
20260502060539 39 360 2.0 6.0 0.00 0.00 0.00 50 1020.7
20260502060041 40 360 4.0 6.0 0.00 0.00 0.00 48 1020.6
20260502055623 40 360 3.0 7.0 0.00 0.00 0.00 48 1020.6
20260502055123 40 360 5.0 11.0 0.00 0.00 0.00 47 1020.6
20260502054620 40 360 5.0 11.0 0.00 0.00 0.00 48 1020.6
20260502054100 40 360 6.0 9.0 0.00 0.00 0.00 48 1020.6
20260502053545 40 360 7.0 10.0 0.00 0.00 0.00 48 1020.7
20260502053104 40 360 7.0 10.0 0.00 0.00 0.00 48 1020.6
20260502052545 40 360 5.0 6.0 0.00 0.00 0.00 47 1020.6
20260502052028 41 360 4.0 6.0 0.00 0.00 0.00 46 1020.6
20260502051610 42 360 4.0 6.0 0.00 0.00 0.00 45 1020.5
20260502051050 42 360 4.0 6.0 0.00 0.00 0.00 45 1020.6
20260502050611 42 360 2.0 9.0 0.00 0.00 0.00 45 1020.6
20260502050033 42 360 6.0 10.0 0.00 0.00 0.00 45 1020.6
20260502045555 42 360 6.0 10.0 0.00 0.00 0.00 45 1020.7
20260502045057 43 360 8.0 10.0 0.00 0.00 0.00 44 1020.6
20260502044557 43 360 4.0 6.0 0.00 0.00 0.00 44 1020.6
20260502044058 43 360 4.0 6.0 0.00 0.00 0.00 44 1020.6
20260502043538 44 227 2.0 4.0 0.00 0.00 0.00 41 1020.5
20260502043040 46 360 1.0 4.0 0.00 0.00 0.00 40 1020.5
20260502042524 46 227 1.0 7.0 0.00 0.00 0.00 39 1020.5
20260502042026 46 360 5.0 7.0 0.00 0.00 0.00 40 1020.6
20260502041550 46 360 3.0 5.0 0.00 0.00 0.00 39 1020.6
20260502041111 47 360 2.0 5.0 0.00 0.00 0.00 37 1020.5
20260502040531 49 360 3.0 4.0 0.00 0.00 0.00 35 1020.5
20260502040033 49 360 2.0 3.0 0.00 0.00 0.00 35 1020.5
20260502035615 48 360 1.0 4.0 0.00 0.00 0.00 36 1020.4
20260502035056 47 360 0.0 3.0 0.00 0.00 0.00 37 1020.3
20260502034537 46 360 0.0 0.0 0.00 0.00 0.00 39 1020.3
20260502034041 45 360 0.0 0.0 0.00 0.00 0.00 39 1020.1
20260502033542 46 360 0.0 0.0 0.00 0.00 0.00 38 1020.1
20260502033045 46 360 0.0 0.0 0.00 0.00 0.00 37 1020.1
20260502032526 47 360 0.0 1.0 0.00 0.00 0.00 36 1020.1
20260502032029 47 360 0.0 3.0 0.00 0.00 0.00 37 1020.0
20260502031536 47 360 1.0 3.0 0.00 0.00 0.00 36 1019.9
20260502031100 47 227 2.0 4.0 0.00 0.00 0.00 37 1019.8
20260502030601 47 360 3.0 4.0 0.00 0.00 0.00 36 1019.7
20260502030042 49 360 2.0 4.0 0.00 0.00 0.00 35 1019.6
20260502025625 49 360 3.0 4.0 0.00 0.00 0.00 35 1019.5
20260502025106 49 360 2.0 5.0 0.00 0.00 0.00 35 1019.4
20260502024547 49 360 4.0 7.0 0.00 0.00 0.00 35 1019.3
20260502024028 50 360 4.0 7.0 0.00 0.00 0.00 35 1019.3
20260502023550 50 360 7.0 7.0 0.00 0.00 0.00 34 1019.1
20260502023031 51 360 5.0 6.0 0.00 0.00 0.00 33 1019.0
20260502022533 51 360 5.0 6.0 0.00 0.00 0.00 34 1019.0
20260502022035 53 360 0.0 0.0 0.00 0.00 0.00 32 1018.9
20260502021559 55 360 0.0 0.0 0.00 0.00 0.00 30 1018.8
20260502021041 58 360 0.0 0.0 0.00 0.00 0.00 28 1018.8
20260502020602 61 360 0.0 0.0 0.00 0.00 0.00 25 1018.8
20260502020043 64 360 0.0 0.0 0.00 0.00 0.00 23 1018.7
20260502015546 64 360 0.0 0.0 0.00 0.00 0.00 23 1018.8
20260502015048 64 360 0.0 0.0 0.00 0.00 0.00 22 1018.8
20260502014549 65 360 0.0 0.0 0.00 0.00 0.00 21 1018.8
20260502014031 65 360 0.0 0.0 0.00 0.00 0.00 21 1018.9
20260502013532 65 360 0.0 0.0 0.00 0.00 0.00 21 1018.8
20260502013055 65 360 0.0 0.0 0.00 0.00 0.00 20 1018.8
20260502012536 65 360 0.0 0.0 0.00 0.00 0.00 21 1018.8
20260502012039 65 360 0.0 0.0 0.00 0.00 0.00 20 1018.9
20260502011525 65 360 0.0 0.0 0.00 0.00 0.00 21 1018.9
20260502011049 65 360 0.0 0.0 0.00 0.00 0.00 21 1019.0
20260502010529 65 360 0.0 0.0 0.00 0.00 0.00 21 1018.9
20260502010052 65 360 0.0 1.0 0.00 0.00 0.00 21 1018.9
20260502005533 65 360 0.0 1.0 0.00 0.00 0.00 21 1019.0
20260502004556 65 360 0.0 6.0 0.00 0.00 0.00 21 1018.9
20260502004100 66 360 0.0 0.0 0.00 0.00 0.00 21 1019.0
20260502003540 65 360 0.0 0.0 0.00 0.00 0.00 21 1018.9
20260502003042 66 360 0.0 0.0 0.00 0.00 0.00 21 1019.0
20260502002525 66 360 0.0 5.0 0.00 0.00 0.00 21 1019.0
20260502002047 66 360 1.0 5.0 0.00 0.00 0.00 21 1019.0
20260502001529 66 360 0.0 1.0 0.00 0.00 0.00 21 1019.1
20260502001051 66 360 0.0 2.0 0.00 0.00 0.00 21 1019.1
20260502000531 66 360 0.0 2.0 0.00 0.00 0.00 21 1019.1
20260502000114 66 360 0.0 4.0 0.00 0.00 0.00 22 1019.1
20260501235535 66 360 0.0 6.0 0.00 0.00 0.00 22 1019.1
20260501235058 65 360 0.0 7.0 0.00 0.00 0.00 21 1019.2
20260501234041 66 360 2.0 9.0 0.00 0.00 0.00 21 1019.1
20260501233541 67 360 2.0 6.0 0.00 0.00 0.00 21 1019.2
20260501233043 67 360 2.0 6.0 0.00 0.00 0.00 21 1019.2
20260501232606 67 360 0.0 1.0 0.00 0.00 0.00 22 1019.2
20260501232047 67 360 0.0 5.0 0.00 0.00 0.00 21 1019.2
20260501231548 66 360 0.0 11.0 0.00 0.00 0.00 22 1019.3
20260501231052 66 360 6.0 11.0 0.00 0.00 0.00 22 1019.3
20260501230552 66 360 2.0 12.0 0.00 0.00 0.00 22 1019.3
20260501230034 66 360 1.0 12.0 0.00 0.00 0.00 22 1019.2
20260501225537 67 360 0.0 3.0 0.00 0.00 0.00 22 1019.3
20260501225120 66 360 0.0 0.0 0.00 0.00 0.00 21 1019.3
20260501224601 66 360 0.0 10.0 0.00 0.00 0.00 21 1019.3